owner,sensor,date,latitude,longitude,vertical_datum,sea_water_temperature,qcFlag
Anadarko,ioos:station:wmo:42399:1,2021-12-01T00:09:00Z,27.1117,-90.7640,100.6,31.1,11111222
Anadarko,ioos:station:wmo:42399:1,2021-12-01T00:29:00Z,27.1117,-90.7640,100.6,31.1,11111222
Anadarko,ioos:station:wmo:42399:1,2021-12-01T00:49:00Z,27.1117,-90.7640,100.6,31.1,11111222
Anadarko,ioos:station:wmo:42399:1,2021-12-01T01:09:00Z,27.1117,-90.7640,100.6,30.7,11111222
Anadarko,ioos:station:wmo:42399:1,2021-12-01T01:29:00Z,27.1117,-90.7640,100.6,31.0,11111222
Anadarko,ioos:station:wmo:42399:1,2021-12-01T01:49:00Z,27.1117,-90.7640,100.6,30.8,11111222
Anadarko,ioos:station:wmo:42399:1,2021-12-01T02:09:00Z,27.1117,-90.7640,100.6,30.7,11111222
Anadarko,ioos:station:wmo:42399:1,2021-12-01T02:29:00Z,27.1117,-90.7640,100.6,30.7,11111222
Anadarko,ioos:station:wmo:42399:1,2021-12-01T02:49:00Z,27.1117,-90.7640,100.6,30.9,11111222
Anadarko,ioos:station:wmo:42399:1,2021-12-01T03:09:00Z,27.1117,-90.7640,100.6,30.9,11111222
Anadarko,ioos:station:wmo:42399:1,2021-12-01T03:29:00Z,27.1117,-90.7640,100.6,31.0,11111222
Anadarko,ioos:station:wmo:42399:1,2021-12-01T03:49:00Z,27.1117,-90.7640,100.6,31.0,11111222
Anadarko,ioos:station:wmo:42399:1,2021-12-01T04:09:00Z,27.1117,-90.7640,100.6,31.0,11111222
Anadarko,ioos:station:wmo:42399:1,2021-12-01T04:28:00Z,27.1117,-90.7640,100.6,31.0,11111222
Anadarko,ioos:station:wmo:42399:1,2021-12-01T04:47:00Z,27.1117,-90.7640,100.6,31.1,11111222
Anadarko,ioos:station:wmo:42399:1,2021-12-01T05:07:00Z,27.1117,-90.7640,100.6,31.0,11111222
Anadarko,ioos:station:wmo:42399:1,2021-12-01T05:27:00Z,27.1117,-90.7640,100.6,31.1,11111222
Anadarko,ioos:station:wmo:42399:1,2021-12-01T05:47:00Z,27.1117,-90.7640,100.6,31.1,11111222
Anadarko,ioos:station:wmo:42399:1,2021-12-01T06:07:00Z,27.1117,-90.7640,100.6,30.9,11111222
Anadarko,ioos:station:wmo:42399:1,2021-12-01T06:27:00Z,27.1117,-90.7640,100.6,30.9,11111222
Anadarko,ioos:station:wmo:42399:1,2021-12-01T06:46:00Z,27.1117,-90.7640,100.6,30.9,11111222
Anadarko,ioos:station:wmo:42399:1,2021-12-01T07:05:00Z,27.1117,-90.7640,100.6,30.9,11111222
Anadarko,ioos:station:wmo:42399:1,2021-12-01T07:25:00Z,27.1117,-90.7640,100.6,30.9,11111222
Anadarko,ioos:station:wmo:42399:1,2021-12-01T07:45:00Z,27.1117,-90.7640,100.6,31.0,11111222
Anadarko,ioos:station:wmo:42399:1,2021-12-01T08:05:00Z,27.1117,-90.7640,100.6,31.0,11111222
Anadarko,ioos:station:wmo:42399:1,2021-12-01T08:25:00Z,27.1117,-90.7640,100.6,31.1,11111222
Anadarko,ioos:station:wmo:42399:1,2021-12-01T08:45:00Z,27.1117,-90.7640,100.6,31.1,11111222
Anadarko,ioos:station:wmo:42399:1,2021-12-01T09:05:00Z,27.1117,-90.7640,100.6,31.0,11111222
Anadarko,ioos:station:wmo:42399:1,2021-12-01T09:25:00Z,27.1117,-90.7640,100.6,31.1,11111222
Anadarko,ioos:station:wmo:42399:1,2021-12-01T09:45:00Z,27.1117,-90.7640,100.6,31.1,11111222
Anadarko,ioos:station:wmo:42399:1,2021-12-01T10:05:00Z,27.1117,-90.7640,100.6,31.2,11111222
Anadarko,ioos:station:wmo:42399:1,2021-12-01T10:25:00Z,27.1117,-90.7640,100.6,31.0,11111222
Anadarko,ioos:station:wmo:42399:1,2021-12-01T10:45:00Z,27.1117,-90.7640,100.6,30.9,11111222
Anadarko,ioos:station:wmo:42399:1,2021-12-01T11:04:00Z,27.1117,-90.7640,100.6,30.9,11111222
Anadarko,ioos:station:wmo:42399:1,2021-12-01T11:24:00Z,27.1117,-90.7640,100.6,30.9,11111222
Anadarko,ioos:station:wmo:42399:1,2021-12-01T11:43:00Z,27.1117,-90.7640,100.6,30.9,11111222
Anadarko,ioos:station:wmo:42399:1,2021-12-01T12:03:00Z,27.1117,-90.7640,100.6,30.9,11111222
Anadarko,ioos:station:wmo:42399:1,2021-12-01T12:23:00Z,27.1117,-90.7640,100.6,30.9,11111222
Anadarko,ioos:station:wmo:42399:1,2021-12-01T12:43:00Z,27.1117,-90.7640,100.6,31.1,11111222
Anadarko,ioos:station:wmo:42399:1,2021-12-01T13:02:00Z,27.1117,-90.7640,100.6,31.1,11111222
Anadarko,ioos:station:wmo:42399:1,2021-12-01T13:22:00Z,27.1117,-90.7640,100.6,31.1,11111222
Anadarko,ioos:station:wmo:42399:1,2021-12-01T13:42:00Z,27.1117,-90.7640,100.6,31.1,11111222
Anadarko,ioos:station:wmo:42399:1,2021-12-01T14:02:00Z,27.1117,-90.7640,100.6,31.2,11111222
Anadarko,ioos:station:wmo:42399:1,2021-12-01T14:22:00Z,27.1117,-90.7640,100.6,31.1,11111222
Anadarko,ioos:station:wmo:42399:1,2021-12-01T14:42:00Z,27.1117,-90.7640,100.6,31.0,11111222
Anadarko,ioos:station:wmo:42399:1,2021-12-01T15:02:00Z,27.1117,-90.7640,100.6,31.0,11111222
Anadarko,ioos:station:wmo:42399:1,2021-12-01T15:21:00Z,27.1117,-90.7640,100.6,30.7,11111222
Anadarko,ioos:station:wmo:42399:1,2021-12-01T15:41:00Z,27.1117,-90.7640,100.6,30.9,11111222
Anadarko,ioos:station:wmo:42399:1,2021-12-01T16:01:00Z,27.1117,-90.7640,100.6,30.8,11111222
Anadarko,ioos:station:wmo:42399:1,2021-12-01T16:21:00Z,27.1117,-90.7640,100.6,30.9,11111222
Anadarko,ioos:station:wmo:42399:1,2021-12-01T16:41:00Z,27.1117,-90.7640,100.6,30.8,11111222
Anadarko,ioos:station:wmo:42399:1,2021-12-01T17:01:00Z,27.1117,-90.7640,100.6,30.9,11111222
Anadarko,ioos:station:wmo:42399:1,2021-12-01T17:20:00Z,27.1117,-90.7640,100.6,30.9,11111222
Anadarko,ioos:station:wmo:42399:1,2021-12-01T17:40:00Z,27.1117,-90.7640,100.6,31.0,11111222
Anadarko,ioos:station:wmo:42399:1,2021-12-01T18:00:00Z,27.1117,-90.7640,100.6,30.9,11111222
Anadarko,ioos:station:wmo:42399:1,2021-12-01T18:20:00Z,27.1117,-90.7640,100.6,30.9,11111222
Anadarko,ioos:station:wmo:42399:1,2021-12-01T18:40:00Z,27.1117,-90.7640,100.6,30.8,11111222
Anadarko,ioos:station:wmo:42399:1,2021-12-01T19:00:00Z,27.1117,-90.7640,100.6,30.8,11111222
Anadarko,ioos:station:wmo:42399:1,2021-12-01T19:19:00Z,27.1117,-90.7640,100.6,30.8,11111222
Anadarko,ioos:station:wmo:42399:1,2021-12-01T19:39:00Z,27.1117,-90.7640,100.6,30.7,11111222
Anadarko,ioos:station:wmo:42399:1,2021-12-01T19:59:00Z,27.1117,-90.7640,100.6,30.8,11111222
Anadarko,ioos:station:wmo:42399:1,2021-12-01T20:19:00Z,27.1117,-90.7640,100.6,30.9,11111222
Anadarko,ioos:station:wmo:42399:1,2021-12-01T20:39:00Z,27.1117,-90.7640,100.6,30.9,11111222
Anadarko,ioos:station:wmo:42399:1,2021-12-01T20:59:00Z,27.1117,-90.7640,100.6,30.9,11111222
Anadarko,ioos:station:wmo:42399:1,2021-12-01T21:19:00Z,27.1117,-90.7640,100.6,31.1,11111222
Anadarko,ioos:station:wmo:42399:1,2021-12-01T21:39:00Z,27.1117,-90.7640,100.6,31.0,11111222
Anadarko,ioos:station:wmo:42399:1,2021-12-01T21:59:00Z,27.1117,-90.7640,100.6,31.0,11111222
Anadarko,ioos:station:wmo:42399:1,2021-12-01T22:19:00Z,27.1117,-90.7640,100.6,31.1,11111222
Anadarko,ioos:station:wmo:42399:1,2021-12-01T22:39:00Z,27.1117,-90.7640,100.6,31.2,11111222
Anadarko,ioos:station:wmo:42399:1,2021-12-01T22:58:00Z,27.1117,-90.7640,100.6,31.3,11111222
Anadarko,ioos:station:wmo:42399:1,2021-12-01T23:18:00Z,27.1117,-90.7640,100.6,31.2,11111222
Anadarko,ioos:station:wmo:42399:1,2021-12-01T23:37:00Z,27.1117,-90.7640,100.6,31.1,11111222
Anadarko,ioos:station:wmo:42399:1,2021-12-01T23:57:00Z,27.1117,-90.7640,100.6,31.1,11111222
Anadarko,ioos:station:wmo:42399:1,2021-12-02T00:17:00Z,27.1117,-90.7640,100.6,31.1,11111222
Anadarko,ioos:station:wmo:42399:1,2021-12-02T00:37:00Z,27.1117,-90.7640,100.6,31.1,11111222
Anadarko,ioos:station:wmo:42399:1,2021-12-02T00:57:00Z,27.1117,-90.7640,100.6,31.1,11111222
Anadarko,ioos:station:wmo:42399:1,2021-12-02T01:16:00Z,27.1117,-90.7640,100.6,31.1,11111222
Anadarko,ioos:station:wmo:42399:1,2021-12-02T01:36:00Z,27.1117,-90.7640,100.6,31.1,11111222
Anadarko,ioos:station:wmo:42399:1,2021-12-02T01:56:00Z,27.1117,-90.7640,100.6,31.1,11111222
Anadarko,ioos:station:wmo:42399:1,2021-12-02T02:16:00Z,27.1117,-90.7640,100.6,31.1,11111222
Anadarko,ioos:station:wmo:42399:1,2021-12-02T02:36:00Z,27.1117,-90.7640,100.6,31.1,11111222
Anadarko,ioos:station:wmo:42399:1,2021-12-02T02:56:00Z,27.1117,-90.7640,100.6,31.0,11111222
Anadarko,ioos:station:wmo:42399:1,2021-12-02T03:16:00Z,27.1117,-90.7640,100.6,31.0,11111222
Anadarko,ioos:station:wmo:42399:1,2021-12-02T03:35:00Z,27.1117,-90.7640,100.6,30.9,11111222
Anadarko,ioos:station:wmo:42399:1,2021-12-02T03:55:00Z,27.1117,-90.7640,100.6,30.8,11111222
Anadarko,ioos:station:wmo:42399:1,2021-12-02T04:15:00Z,27.1117,-90.7640,100.6,30.8,11111222
Anadarko,ioos:station:wmo:42399:1,2021-12-02T04:35:00Z,27.1117,-90.7640,100.6,30.7,11111222
Anadarko,ioos:station:wmo:42399:1,2021-12-02T04:55:00Z,27.1117,-90.7640,100.6,30.6,11111222
Anadarko,ioos:station:wmo:42399:1,2021-12-02T05:15:00Z,27.1117,-90.7640,100.6,30.4,11111222
Anadarko,ioos:station:wmo:42399:1,2021-12-02T05:35:00Z,27.1117,-90.7640,100.6,30.5,11111222
Anadarko,ioos:station:wmo:42399:1,2021-12-02T05:54:00Z,27.1117,-90.7640,100.6,30.5,11111222
Anadarko,ioos:station:wmo:42399:1,2021-12-02T06:14:00Z,27.1117,-90.7640,100.6,30.7,11111222
Anadarko,ioos:station:wmo:42399:1,2021-12-02T06:34:00Z,27.1117,-90.7640,100.6,30.9,11111222
Anadarko,ioos:station:wmo:42399:1,2021-12-02T06:54:00Z,27.1117,-90.7640,100.6,30.8,11111222
Anadarko,ioos:station:wmo:42399:1,2021-12-02T07:14:00Z,27.1117,-90.7640,100.6,30.7,11111222
Anadarko,ioos:station:wmo:42399:1,2021-12-02T07:35:00Z,27.1117,-90.7640,100.6,30.7,11111222
Anadarko,ioos:station:wmo:42399:1,2021-12-02T07:54:00Z,27.1117,-90.7640,100.6,30.9,11111222
Anadarko,ioos:station:wmo:42399:1,2021-12-02T08:14:00Z,27.1117,-90.7640,100.6,30.9,11111222
Anadarko,ioos:station:wmo:42399:1,2021-12-02T08:34:00Z,27.1117,-90.7640,100.6,30.9,11111222
Anadarko,ioos:station:wmo:42399:1,2021-12-02T08:54:00Z,27.1117,-90.7640,100.6,30.9,11111222
Anadarko,ioos:station:wmo:42399:1,2021-12-02T09:14:00Z,27.1117,-90.7640,100.6,30.9,11111222
Anadarko,ioos:station:wmo:42399:1,2021-12-02T09:34:00Z,27.1117,-90.7640,100.6,31.1,11111222
Anadarko,ioos:station:wmo:42399:1,2021-12-02T09:54:00Z,27.1117,-90.7640,100.6,30.9,11111222
Anadarko,ioos:station:wmo:42399:1,2021-12-02T10:14:00Z,27.1117,-90.7640,100.6,31.0,11111222
Anadarko,ioos:station:wmo:42399:1,2021-12-02T10:34:00Z,27.1117,-90.7640,100.6,31.1,11111222
Anadarko,ioos:station:wmo:42399:1,2021-12-02T10:53:00Z,27.1117,-90.7640,100.6,31.0,11111222
Anadarko,ioos:station:wmo:42399:1,2021-12-02T11:13:00Z,27.1117,-90.7640,100.6,31.1,11111222
Anadarko,ioos:station:wmo:42399:1,2021-12-02T11:33:00Z,27.1117,-90.7640,100.6,31.1,11111222
Anadarko,ioos:station:wmo:42399:1,2021-12-02T11:53:00Z,27.1117,-90.7640,100.6,31.1,11111222
Anadarko,ioos:station:wmo:42399:1,2021-12-02T12:13:00Z,27.1117,-90.7640,100.6,31.2,11111222
Anadarko,ioos:station:wmo:42399:1,2021-12-02T12:32:00Z,27.1117,-90.7640,100.6,31.2,11111222
Anadarko,ioos:station:wmo:42399:1,2021-12-02T12:52:00Z,27.1117,-90.7640,100.6,31.2,11111222
Anadarko,ioos:station:wmo:42399:1,2021-12-02T13:12:00Z,27.1117,-90.7640,100.6,31.1,11111222
Anadarko,ioos:station:wmo:42399:1,2021-12-02T13:32:00Z,27.1117,-90.7640,100.6,31.2,11111222
Anadarko,ioos:station:wmo:42399:1,2021-12-02T13:52:00Z,27.1117,-90.7640,100.6,31.2,11111222
Anadarko,ioos:station:wmo:42399:1,2021-12-02T14:12:00Z,27.1117,-90.7640,100.6,31.2,11111222
Anadarko,ioos:station:wmo:42399:1,2021-12-02T14:32:00Z,27.1117,-90.7640,100.6,31.2,11111222
Anadarko,ioos:station:wmo:42399:1,2021-12-02T14:52:00Z,27.1117,-90.7640,100.6,31.1,11111222
Anadarko,ioos:station:wmo:42399:1,2021-12-02T15:12:00Z,27.1117,-90.7640,100.6,31.2,11111222
Anadarko,ioos:station:wmo:42399:1,2021-12-02T15:32:00Z,27.1117,-90.7640,100.6,31.2,11111222
Anadarko,ioos:station:wmo:42399:1,2021-12-02T15:52:00Z,27.1117,-90.7640,100.6,31.2,11111222
Anadarko,ioos:station:wmo:42399:1,2021-12-02T16:11:00Z,27.1117,-90.7640,100.6,31.3,11111222
Anadarko,ioos:station:wmo:42399:1,2021-12-02T16:31:00Z,27.1117,-90.7640,100.6,31.3,11111222
Anadarko,ioos:station:wmo:42399:1,2021-12-02T16:50:00Z,27.1117,-90.7640,100.6,31.4,11111222
Anadarko,ioos:station:wmo:42399:1,2021-12-02T17:10:00Z,27.1117,-90.7640,100.6,31.4,11111222
Anadarko,ioos:station:wmo:42399:1,2021-12-02T17:30:00Z,27.1117,-90.7640,100.6,31.4,11111222
Anadarko,ioos:station:wmo:42399:1,2021-12-02T17:50:00Z,27.1117,-90.7640,100.6,31.4,11111222
Anadarko,ioos:station:wmo:42399:1,2021-12-02T18:10:00Z,27.1117,-90.7640,100.6,31.4,11111222
Anadarko,ioos:station:wmo:42399:1,2021-12-02T18:30:00Z,27.1117,-90.7640,100.6,31.4,11111222
Anadarko,ioos:station:wmo:42399:1,2021-12-02T18:50:00Z,27.1117,-90.7640,100.6,31.2,11111222
Anadarko,ioos:station:wmo:42399:1,2021-12-02T19:10:00Z,27.1117,-90.7640,100.6,31.3,11111222
Anadarko,ioos:station:wmo:42399:1,2021-12-02T19:30:00Z,27.1117,-90.7640,100.6,31.1,11111222
Anadarko,ioos:station:wmo:42399:1,2021-12-02T19:49:00Z,27.1117,-90.7640,100.6,31.0,11111222
Anadarko,ioos:station:wmo:42399:1,2021-12-02T20:09:00Z,27.1117,-90.7640,100.6,31.0,11111222
Anadarko,ioos:station:wmo:42399:1,2021-12-02T20:29:00Z,27.1117,-90.7640,100.6,31.0,11111222
Anadarko,ioos:station:wmo:42399:1,2021-12-02T20:49:00Z,27.1117,-90.7640,100.6,31.1,11111222
Anadarko,ioos:station:wmo:42399:1,2021-12-02T21:09:00Z,27.1117,-90.7640,100.6,31.0,11111222
Anadarko,ioos:station:wmo:42399:1,2021-12-02T21:29:00Z,27.1117,-90.7640,100.6,30.7,11111222
Anadarko,ioos:station:wmo:42399:1,2021-12-02T21:48:00Z,27.1117,-90.7640,100.6,30.7,11111222
Anadarko,ioos:station:wmo:42399:1,2021-12-02T22:08:00Z,27.1117,-90.7640,100.6,30.9,11111222
Anadarko,ioos:station:wmo:42399:1,2021-12-02T22:28:00Z,27.1117,-90.7640,100.6,31.0,11111222
Anadarko,ioos:station:wmo:42399:1,2021-12-02T22:48:00Z,27.1117,-90.7640,100.6,31.3,11111222
Anadarko,ioos:station:wmo:42399:1,2021-12-02T23:08:00Z,27.1117,-90.7640,100.6,31.4,11111222
Anadarko,ioos:station:wmo:42399:1,2021-12-02T23:28:00Z,27.1117,-90.7640,100.6,31.4,11111222
Anadarko,ioos:station:wmo:42399:1,2021-12-02T23:47:00Z,27.1117,-90.7640,100.6,31.4,11111222
Anadarko,ioos:station:wmo:42399:1,2021-12-03T00:07:00Z,27.1117,-90.7640,100.6,31.5,11111222
Anadarko,ioos:station:wmo:42399:1,2021-12-03T00:27:00Z,27.1117,-90.7640,100.6,31.5,11111222
Anadarko,ioos:station:wmo:42399:1,2021-12-03T00:47:00Z,27.1117,-90.7640,100.6,31.5,11111222
Anadarko,ioos:station:wmo:42399:1,2021-12-03T01:07:00Z,27.1117,-90.7640,100.6,31.4,11111222
Anadarko,ioos:station:wmo:42399:1,2021-12-03T01:27:00Z,27.1117,-90.7640,100.6,31.4,11111222
Anadarko,ioos:station:wmo:42399:1,2021-12-03T01:47:00Z,27.1117,-90.7640,100.6,31.4,11111222
Anadarko,ioos:station:wmo:42399:1,2021-12-03T02:07:00Z,27.1117,-90.7640,100.6,31.4,11111222
Anadarko,ioos:station:wmo:42399:1,2021-12-03T02:27:00Z,27.1117,-90.7640,100.6,31.4,11111222
Anadarko,ioos:station:wmo:42399:1,2021-12-03T02:46:00Z,27.1117,-90.7640,100.6,31.4,11111222
Anadarko,ioos:station:wmo:42399:1,2021-12-03T03:06:00Z,27.1117,-90.7640,100.6,31.4,11111222
Anadarko,ioos:station:wmo:42399:1,2021-12-03T03:26:00Z,27.1117,-90.7640,100.6,31.4,11111222
Anadarko,ioos:station:wmo:42399:1,2021-12-03T03:46:00Z,27.1117,-90.7640,100.6,31.3,11111222
Anadarko,ioos:station:wmo:42399:1,2021-12-03T04:06:00Z,27.1117,-90.7640,100.6,31.3,11111222
Anadarko,ioos:station:wmo:42399:1,2021-12-03T04:26:00Z,27.1117,-90.7640,100.6,31.3,11111222
Anadarko,ioos:station:wmo:42399:1,2021-12-03T04:45:00Z,27.1117,-90.7640,100.6,30.7,11111222
Anadarko,ioos:station:wmo:42399:1,2021-12-03T05:05:00Z,27.1117,-90.7640,100.6,30.9,11111222
Anadarko,ioos:station:wmo:42399:1,2021-12-03T05:25:00Z,27.1117,-90.7640,100.6,31.2,11111222
Anadarko,ioos:station:wmo:42399:1,2021-12-03T05:45:00Z,27.1117,-90.7640,100.6,31.2,11111222
Anadarko,ioos:station:wmo:42399:1,2021-12-03T06:05:00Z,27.1117,-90.7640,100.6,31.2,11111222
Anadarko,ioos:station:wmo:42399:1,2021-12-03T06:24:00Z,27.1117,-90.7640,100.6,31.1,11111222
Anadarko,ioos:station:wmo:42399:1,2021-12-03T06:44:00Z,27.1117,-90.7640,100.6,31.1,11111222
Anadarko,ioos:station:wmo:42399:1,2021-12-03T07:04:00Z,27.1117,-90.7640,100.6,31.1,11111222
Anadarko,ioos:station:wmo:42399:1,2021-12-03T07:24:00Z,27.1117,-90.7640,100.6,31.0,11111222
Anadarko,ioos:station:wmo:42399:1,2021-12-03T07:44:00Z,27.1117,-90.7640,100.6,31.0,11111222
Anadarko,ioos:station:wmo:42399:1,2021-12-03T08:04:00Z,27.1117,-90.7640,100.6,31.0,11111222
Anadarko,ioos:station:wmo:42399:1,2021-12-03T08:24:00Z,27.1117,-90.7640,100.6,30.9,11111222
Anadarko,ioos:station:wmo:42399:1,2021-12-03T08:44:00Z,27.1117,-90.7640,100.6,30.9,11111222
Anadarko,ioos:station:wmo:42399:1,2021-12-03T09:04:00Z,27.1117,-90.7640,100.6,30.8,11111222
Anadarko,ioos:station:wmo:42399:1,2021-12-03T09:24:00Z,27.1117,-90.7640,100.6,30.8,11111222
Anadarko,ioos:station:wmo:42399:1,2021-12-03T09:43:00Z,27.1117,-90.7640,100.6,30.9,11111222
Anadarko,ioos:station:wmo:42399:1,2021-12-03T10:03:00Z,27.1117,-90.7640,100.6,30.9,11111222
Anadarko,ioos:station:wmo:42399:1,2021-12-03T10:23:00Z,27.1117,-90.7640,100.6,31.1,11111222
Anadarko,ioos:station:wmo:42399:1,2021-12-03T10:43:00Z,27.1117,-90.7640,100.6,31.0,11111222
Anadarko,ioos:station:wmo:42399:1,2021-12-03T11:02:00Z,27.1117,-90.7640,100.6,31.1,11111222
Anadarko,ioos:station:wmo:42399:1,2021-12-03T11:22:00Z,27.1117,-90.7640,100.6,31.1,11111222
Anadarko,ioos:station:wmo:42399:1,2021-12-03T11:41:00Z,27.1117,-90.7640,100.6,31.1,11111222
Anadarko,ioos:station:wmo:42399:1,2021-12-03T12:01:00Z,27.1117,-90.7640,100.6,31.0,11111222
Anadarko,ioos:station:wmo:42399:1,2021-12-03T12:21:00Z,27.1117,-90.7640,100.6,30.9,11111222
Anadarko,ioos:station:wmo:42399:1,2021-12-03T12:41:00Z,27.1117,-90.7640,100.6,30.9,11111222
Anadarko,ioos:station:wmo:42399:1,2021-12-03T13:01:00Z,27.1117,-90.7640,100.6,31.0,11111222
Anadarko,ioos:station:wmo:42399:1,2021-12-03T13:20:00Z,27.1117,-90.7640,100.6,31.1,11111222
Anadarko,ioos:station:wmo:42399:1,2021-12-03T13:40:00Z,27.1117,-90.7640,100.6,31.1,11111222
Anadarko,ioos:station:wmo:42399:1,2021-12-03T14:00:00Z,27.1117,-90.7640,100.6,31.1,11111222
Anadarko,ioos:station:wmo:42399:1,2021-12-03T14:20:00Z,27.1117,-90.7640,100.6,31.1,11111222
Anadarko,ioos:station:wmo:42399:1,2021-12-03T14:40:00Z,27.1117,-90.7640,100.6,31.1,11111222
Anadarko,ioos:station:wmo:42399:1,2021-12-03T15:00:00Z,27.1117,-90.7640,100.6,31.1,11111222
Anadarko,ioos:station:wmo:42399:1,2021-12-03T15:20:00Z,27.1117,-90.7640,100.6,31.1,11111222
Anadarko,ioos:station:wmo:42399:1,2021-12-03T15:40:00Z,27.1117,-90.7640,100.6,31.1,11111222
Anadarko,ioos:station:wmo:42399:1,2021-12-03T16:00:00Z,27.1117,-90.7640,100.6,31.1,11111222
Anadarko,ioos:station:wmo:42399:1,2021-12-03T16:20:00Z,27.1117,-90.7640,100.6,31.1,11111222
Anadarko,ioos:station:wmo:42399:1,2021-12-03T16:39:00Z,27.1117,-90.7640,100.6,31.1,11111222
Anadarko,ioos:station:wmo:42399:1,2021-12-03T16:59:00Z,27.1117,-90.7640,100.6,31.2,11111222
Anadarko,ioos:station:wmo:42399:1,2021-12-03T17:19:00Z,27.1117,-90.7640,100.6,31.2,11111222
Anadarko,ioos:station:wmo:42399:1,2021-12-03T17:39:00Z,27.1117,-90.7640,100.6,31.2,11111222
Anadarko,ioos:station:wmo:42399:1,2021-12-03T17:59:00Z,27.1117,-90.7640,100.6,31.2,11111222
Anadarko,ioos:station:wmo:42399:1,2021-12-03T18:19:00Z,27.1117,-90.7640,100.6,31.2,11111222
Anadarko,ioos:station:wmo:42399:1,2021-12-03T18:39:00Z,27.1117,-90.7640,100.6,31.3,11111222
Anadarko,ioos:station:wmo:42399:1,2021-12-03T18:59:00Z,27.1117,-90.7640,100.6,31.2,11111222
Anadarko,ioos:station:wmo:42399:1,2021-12-03T19:19:00Z,27.1117,-90.7640,100.6,31.2,11111222
Anadarko,ioos:station:wmo:42399:1,2021-12-03T19:38:00Z,27.1117,-90.7640,100.6,31.1,11111222
Anadarko,ioos:station:wmo:42399:1,2021-12-03T19:58:00Z,27.1117,-90.7640,100.6,31.2,11111222
Anadarko,ioos:station:wmo:42399:1,2021-12-03T20:18:00Z,27.1117,-90.7640,100.6,31.2,11111222
Anadarko,ioos:station:wmo:42399:1,2021-12-03T20:37:00Z,27.1117,-90.7640,100.6,31.1,11111222
Anadarko,ioos:station:wmo:42399:1,2021-12-03T20:56:00Z,27.1117,-90.7640,100.6,31.2,11111222
Anadarko,ioos:station:wmo:42399:1,2021-12-03T21:16:00Z,27.1117,-90.7640,100.6,31.2,11111222
Anadarko,ioos:station:wmo:42399:1,2021-12-03T21:36:00Z,27.1117,-90.7640,100.6,31.2,11111222
Anadarko,ioos:station:wmo:42399:1,2021-12-03T21:56:00Z,27.1117,-90.7640,100.6,31.1,11111222
Anadarko,ioos:station:wmo:42399:1,2021-12-03T22:15:00Z,27.1117,-90.7640,100.6,31.1,11111222
Anadarko,ioos:station:wmo:42399:1,2021-12-03T22:35:00Z,27.1117,-90.7640,100.6,31.2,11111222
Anadarko,ioos:station:wmo:42399:1,2021-12-03T22:55:00Z,27.1117,-90.7640,100.6,31.0,11111222
Anadarko,ioos:station:wmo:42399:1,2021-12-03T23:14:00Z,27.1117,-90.7640,100.6,31.1,11111222
Anadarko,ioos:station:wmo:42399:1,2021-12-03T23:34:00Z,27.1117,-90.7640,100.6,31.1,11111222
Anadarko,ioos:station:wmo:42399:1,2021-12-03T23:54:00Z,27.1117,-90.7640,100.6,31.0,11111222
Anadarko,ioos:station:wmo:42399:1,2021-12-04T00:13:00Z,27.1117,-90.7640,100.6,31.1,11111222
Anadarko,ioos:station:wmo:42399:1,2021-12-04T00:33:00Z,27.1117,-90.7640,100.6,30.9,11111222
Anadarko,ioos:station:wmo:42399:1,2021-12-04T00:53:00Z,27.1117,-90.7640,100.6,31.0,11111222
Anadarko,ioos:station:wmo:42399:1,2021-12-04T01:13:00Z,27.1117,-90.7640,100.6,31.0,11111222
Anadarko,ioos:station:wmo:42399:1,2021-12-04T01:33:00Z,27.1117,-90.7640,100.6,30.9,11111222
Anadarko,ioos:station:wmo:42399:1,2021-12-04T01:53:00Z,27.1117,-90.7640,100.6,31.1,11111222
Anadarko,ioos:station:wmo:42399:1,2021-12-04T02:13:00Z,27.1117,-90.7640,100.6,31.2,11111222
Anadarko,ioos:station:wmo:42399:1,2021-12-04T02:33:00Z,27.1117,-90.7640,100.6,31.2,11111222
Anadarko,ioos:station:wmo:42399:1,2021-12-04T02:53:00Z,27.1117,-90.7640,100.6,31.1,11111222
Anadarko,ioos:station:wmo:42399:1,2021-12-04T03:13:00Z,27.1117,-90.7640,100.6,31.2,11111222
Anadarko,ioos:station:wmo:42399:1,2021-12-04T03:33:00Z,27.1117,-90.7640,100.6,31.1,11111222
Anadarko,ioos:station:wmo:42399:1,2021-12-04T03:53:00Z,27.1117,-90.7640,100.6,31.1,11111222
Anadarko,ioos:station:wmo:42399:1,2021-12-04T04:12:00Z,27.1117,-90.7640,100.6,31.2,11111222
Anadarko,ioos:station:wmo:42399:1,2021-12-04T04:32:00Z,27.1117,-90.7640,100.6,31.2,11111222
Anadarko,ioos:station:wmo:42399:1,2021-12-04T04:52:00Z,27.1117,-90.7640,100.6,31.2,11111222
Anadarko,ioos:station:wmo:42399:1,2021-12-04T05:12:00Z,27.1117,-90.7640,100.6,31.2,11111222
Anadarko,ioos:station:wmo:42399:1,2021-12-04T05:32:00Z,27.1117,-90.7640,100.6,31.2,11111222
Anadarko,ioos:station:wmo:42399:1,2021-12-04T05:52:00Z,27.1117,-90.7640,100.6,31.1,11111222
Anadarko,ioos:station:wmo:42399:1,2021-12-04T06:12:00Z,27.1117,-90.7640,100.6,31.1,11111222
Anadarko,ioos:station:wmo:42399:1,2021-12-04T06:32:00Z,27.1117,-90.7640,100.6,31.1,11111222
Anadarko,ioos:station:wmo:42399:1,2021-12-04T06:52:00Z,27.1117,-90.7640,100.6,31.1,11111222
Anadarko,ioos:station:wmo:42399:1,2021-12-04T07:12:00Z,27.1117,-90.7640,100.6,31.1,11111222
Anadarko,ioos:station:wmo:42399:1,2021-12-04T07:32:00Z,27.1117,-90.7640,100.6,31.2,11111222
Anadarko,ioos:station:wmo:42399:1,2021-12-04T07:52:00Z,27.1117,-90.7640,100.6,31.1,11111222
Anadarko,ioos:station:wmo:42399:1,2021-12-04T08:12:00Z,27.1117,-90.7640,100.6,31.0,11111222
Anadarko,ioos:station:wmo:42399:1,2021-12-04T08:32:00Z,27.1117,-90.7640,100.6,30.9,11111222
Anadarko,ioos:station:wmo:42399:1,2021-12-04T08:52:00Z,27.1117,-90.7640,100.6,31.0,11111222
Anadarko,ioos:station:wmo:42399:1,2021-12-04T09:12:00Z,27.1117,-90.7640,100.6,30.9,11111222
Anadarko,ioos:station:wmo:42399:1,2021-12-04T09:32:00Z,27.1117,-90.7640,100.6,31.0,11111222
Anadarko,ioos:station:wmo:42399:1,2021-12-04T09:52:00Z,27.1117,-90.7640,100.6,30.9,11111222
Anadarko,ioos:station:wmo:42399:1,2021-12-04T10:12:00Z,27.1117,-90.7640,100.6,31.0,11111222
Anadarko,ioos:station:wmo:42399:1,2021-12-04T10:32:00Z,27.1117,-90.7640,100.6,30.9,11111222
Anadarko,ioos:station:wmo:42399:1,2021-12-04T10:52:00Z,27.1117,-90.7640,100.6,30.9,11111222
Anadarko,ioos:station:wmo:42399:1,2021-12-04T11:12:00Z,27.1117,-90.7640,100.6,30.8,11111222
Anadarko,ioos:station:wmo:42399:1,2021-12-04T11:32:00Z,27.1117,-90.7640,100.6,30.8,11111222
Anadarko,ioos:station:wmo:42399:1,2021-12-04T11:52:00Z,27.1117,-90.7640,100.6,30.7,11111222
Anadarko,ioos:station:wmo:42399:1,2021-12-04T12:11:00Z,27.1117,-90.7640,100.6,30.7,11111222
Anadarko,ioos:station:wmo:42399:1,2021-12-04T12:31:00Z,27.1117,-90.7640,100.6,30.6,11111222
Anadarko,ioos:station:wmo:42399:1,2021-12-04T12:51:00Z,27.1117,-90.7640,100.6,30.5,11111222